DELTA 1 DEB

Satellite information

Favourite Embed

Satellite Type and Status

DEBRISIN ORBIT

Key statistics

Satellite DELTA 1 DEB at a glance.

Uptime

18986

Days in orbit

Revolutions

≈ 12.5

Per day

Orbit

SSO

Sun Synchronous Orbit

Inclination

101.9

Latest

Satellite identification and parameters

Extended collection of information and parameters for DELTA 1 DEB.

Object identification

Identified? True

Debris? True

Object name: DELTA 1 DEB

International designator: 1973-086HC

Object number (NORAD): 19033

Object ID (CCSDS): 19033

Country: UNITED STATES OF AMERICA (US)

Current information (Y/N): Y

RCS size: SMALL

Orbital parameters

Period: 114.882 minutes

Inclination: 101.9467 deg

SMA: 7828.186 km

Apoapsis: 1479.096 km

Periapsis: 1421.006 km

RAAN: 303.454 deg

Eccentricy: 0.00371033

Argument of periapsis: 214.226 deg

Mean anomaly: 265.8598 deg

Mean motion: 12.53461738 rev/day

Mean motion (dot): 0.00000471 rev/day2

B* drag term: 0.0032403017 1/REarth

Two-line elements (TLE)

Creation date: Oct. 28, 2025, 7:11 p.m.

Reference frame: TEME

Reference center: EARTH

Epoch: Oct. 28, 2025, 7 a.m. UTC

TLE line 0: 0 DELTA 1 DEB

TLE line 1: 1 19033U 73086HC 25301.29180194 .00000471 00000-0 32403-2 0 9991

TLE line 2: 2 19033 101.9467 303.4540 0037103 214.2260 265.8598 12.53461738854725

Live tracking on map

Real-time ground track for satellite DELTA 1 DEB.

In-orbit conjunctions

A list of the most updated potential collisions computed for object DELTA 1 DEB.

Target Orbit TCA Probability of collision Miss distance Type
COSMOS 1854 LEO 2025-04-06 03:42:34 0.0001258368 983.0 (m) PAYLOAD

Associated space launch

Meteorological satellite using radiometric imaging

DELTA 1 DEB was lifted into orbit during the mission ‘Delta 0300 | NOAA 3’, on board a Delta 0300 space rocket.

The launch took place on Nov. 6, 1973, 5:02 p.m. from Space Launch Complex 2W.

For more information about the launch, click the button.

Launch to space Delta 0300 | NOAA 3
Delta 0300 | NOAA 3

Agency: N/A

Status: Launch Successful

Launch date: Nov. 6, 1973, 5:02 p.m. UTC

Rocket: Delta 0300

Launch pad: Space Launch Complex 2W

Location: Vandenberg SFB, CA, USA

...

Latest news about this satellite

There are no fresh news available about this satellite. Check back as we update our databases every day.


Newsletter sign-up

Weekly statistics, charts and insights to help you stay on top of the space industry.